{"data":{"norad_id":33408,"epoch":"2026-05-25T03:51:46.133568Z","epoch_age_seconds":57027,"freshness":"FRESH","line1":"1 33408U 08053A   26145.16095062  .00004113  00000+0  21206-3 0  9993","line2":"2 33408  97.8429 177.6843 0012968  92.2991 267.9726 15.16896215959470","mean_motion":15.16896215,"eccentricity":0.0012968,"inclination_deg":97.8429,"raan_deg":177.6843,"arg_perigee_deg":92.2991,"mean_anomaly_deg":267.9726,"bstar":0.00021206,"rev_number":95947,"period_min":94.930687133398,"perigee_km":506.28849579741,"apogee_km":524.16712677196,"semimajor_km":6893.3648112847,"source":"CELESTRAK","updated_at":"2026-05-25T13:37:55.151269Z"}}